,,PA_Meas_PMT16A,,PR_Meas_QMR101_102,,RH_Meas_QMH101,,SR_Meas_QMS101,,TA_Meas_QMH101,,GenWind,,GenWind,
time,status,PA,status,PR,status,RH,status,SR,status,TA,status,DirAvg,status,SpdAvg,
2013-04-01, 00:00:05,VALID,917.814,VALID,0,VALID,94.881,VALID,0,VALID,22.2388,VALID,318,VALID,0,
2013-04-01, 00:01:05,VALID,917.836,VALID,0,VALID,94.9649,VALID,0,VALID,22.2176,VALID,318,VALID,0,
2013-04-01, 00:02:05,VALID,917.852,VALID,0,VALID,94.9496,VALID,0,VALID,22.2388,VALID,318,VALID,0,
2013-04-01, 00:03:05,VALID,917.878,VALID,0,VALID,94.942,VALID,0,VALID,22.2193,VALID,318,VALID,0,
2013-04-01, 00:04:05,VALID,917.872,VALID,0,VALID,95.003,VALID,0,VALID,22.2193,VALID,318,VALID,0,
2013-04-01, 00:05:05,VALID,917.879,VALID,0,VALID,95.0488,VALID,0,VALID,22.1803,VALID,318,VALID,0,
2013-04-01, 00:06:05,VALID,917.881,VALID,0,VALID,95.186,VALID,0,VALID,22.1803,VALID,318,VALID,0,
2013-04-01, 00:07:05,VALID,917.912,VALID,0,VALID,95.3766,VALID,0,VALID,22.1981,VALID,318,VALID,0,
2013-04-01, 00:08:05,VALID,917.897,VALID,0,VALID,95.3994,VALID,0,VALID,22.1981,VALID,318,VALID,0,
2013-04-01, 00:09:05,VALID,917.893,VALID,0,VALID,95.4375,VALID,0,VALID,22.1981,VALID,318,VALID,0,
2013-04-01, 00:10:05,VALID,917.879,VALID,0,VALID,95.4757,VALID,0,VALID,22.2388,VALID,318,VALID,0,
2013-04-01, 00:11:05,VALID,917.893,VALID,0,VALID,95.5367,VALID,0,VALID,22.2388,VALID,318,VALID,0,
2013-04-01, 00:12:05,VALID,917.897,VALID,0,VALID,95.5443,VALID,0,VALID,22.2388,VALID,318,VALID,0,
2013-04-01, 00:13:05,VALID,917.899,VALID,0,VALID,95.5595,VALID,0,VALID,22.2193,VALID,318,VALID,0,
2013-04-01, 00:14:05,VALID,917.879,VALID,0,VALID,95.5519,VALID,0,VALID,22.2193,VALID,318,VALID,0,
2013-04-01, 00:15:05,VALID,917.893,VALID,0,VALID,95.5671,VALID,0,VALID,22.1998,VALID,318,VALID,0,
2013-04-01, 00:16:05,VALID,917.879,VALID,0,VALID,95.6586,VALID,0,VALID,22.2193,VALID,318,VALID,0,
2013-04-01, 00:17:05,VALID,917.86,VALID,0,VALID,95.651,VALID,0,VALID,22.2193,VALID,318,VALID,0,
2013-04-01, 00:18:05,VALID,917.84,VALID,0,VALID,95.651,VALID,0,VALID,22.1803,VALID,318,VALID,0,
2013-04-01, 00:19:05,VALID,917.785,VALID,0,VALID,95.6739,VALID,0,VALID,22.1608,VALID,318,VALID,0,
2013-04-01, 00:20:05,VALID,917.761,VALID,0,VALID,95.6967,VALID,0,VALID,22.1413,VALID,318,VALID,0,
2013-04-01, 00:21:05,VALID,917.738,VALID,0,VALID,95.7349,VALID,0,VALID,22.1413,VALID,318,VALID,0,
2013-04-01, 00:22:05,VALID,917.704,VALID,0,VALID,95.7577,VALID,0,VALID,22.1217,VALID,318,VALID,0,
2013-04-01, 00:23:05,VALID,917.69,VALID,0.2,VALID,95.7806,VALID,0,VALID,22.1217,VALID,318,VALID,0,
2013-04-01, 00:24:05,VALID,917.669,VALID,0,VALID,95.7958,VALID,0,VALID,22.1022,VALID,318,VALID,0,
2013-04-01, 00:25:05,VALID,917.674,VALID,0.2,VALID,95.8111,VALID,0,VALID,22.1022,VALID,318,VALID,0,
2013-04-01, 00:26:05,VALID,917.655,VALID,0.2,VALID,95.8645,VALID,0,VALID,22.1022,VALID,318,VALID,0,
2013-04-01, 00:27:05,VALID,917.614,VALID,0.8,VALID,95.8873,VALID,0,VALID,22.0827,VALID,318,VALID,0,
2013-04-01, 00:28:05,VALID,917.568,VALID,0.4,VALID,95.9559,VALID,0,VALID,22.1022,VALID,318,VALID,0,
2013-04-01, 00:29:05,VALID,917.496,VALID,0.4,VALID,95.9788,VALID,0,VALID,22.1217,VALID,318,VALID,0,
2013-04-01, 00:30:05,VALID,917.455,VALID,0.2,VALID,96.0093,VALID,0,VALID,22.0827,VALID,318,VALID,0,
2013-04-01, 00:31:05,VALID,917.417,VALID,0.2,VALID,96.0322,VALID,0,VALID,22.1022,VALID,318,VALID,0,
2013-04-01, 00:32:05,VALID,917.383,VALID,0.4,VALID,96.0245,VALID,0,VALID,22.0632,VALID,318,VALID,0,
2013-04-01, 00:33:05,VALID,917.331,VALID,0.4,VALID,96.0398,VALID,0,VALID,22.0632,VALID,318,VALID,0,
2013-04-01, 00:34:05,VALID,917.267,VALID,0,VALID,96.055,VALID,0,VALID,22.0242,VALID,318,VALID,0,
2013-04-01, 00:35:05,VALID,917.226,VALID,0.2,VALID,96.0474,VALID,0,VALID,21.9851,VALID,318,VALID,0,
2013-04-01, 00:36:05,VALID,917.209,VALID,0,VALID,96.0627,VALID,0,VALID,21.964,VALID,318,VALID,0,
2013-04-01, 00:37:05,VALID,917.135,VALID,0,VALID,96.0855,VALID,0,VALID,21.9851,VALID,318,VALID,0,
2013-04-01, 00:38:05,VALID,917.152,VALID,0,VALID,96.1084,VALID,0,VALID,21.9656,VALID,318,VALID,0,
2013-04-01, 00:39:05,VALID,917.116,VALID,0,VALID,96.1465,VALID,0,VALID,21.9851,VALID,318,VALID,0,
2013-04-01, 00:40:05,VALID,917.145,VALID,0,VALID,96.1846,VALID,0,VALID,21.9851,VALID,318,VALID,0,
2013-04-01, 00:41:05,VALID,917.151,VALID,0.2,VALID,96.238,VALID,0,VALID,21.9656,VALID,318,VALID,0,
2013-04-01, 00:42:05,VALID,917.149,VALID,0,VALID,96.238,VALID,0,VALID,21.9656,VALID,318,VALID,0,
2013-04-01, 00:43:05,VALID,917.165,VALID,0,VALID,96.2609,VALID,0,VALID,21.9851,VALID,318,VALID,0,
2013-04-01, 00:44:05,VALID,917.166,VALID,0,VALID,96.2914,VALID,0,VALID,22.0047,VALID,318,VALID,0,
2013-04-01, 00:45:05,VALID,917.138,VALID,0,VALID,96.299,VALID,0,VALID,21.9851,VALID,318,VALID,0,
2013-04-01, 00:46:05,VALID,917.094,VALID,0,VALID,96.299,VALID,0,VALID,21.9656,VALID,318,VALID,0,
2013-04-01, 00:47:05,VALID,917.097,VALID,0,VALID,96.3066,VALID,0,VALID,21.9249,VALID,318,VALID,0,
2013-04-01, 00:48:05,VALID,917.069,VALID,0,VALID,96.3142,VALID,0,VALID,21.9054,VALID,318,VALID,0,
2013-04-01, 00:49:05,VALID,917.103,VALID,0,VALID,96.3066,VALID,0,VALID,21.9071,VALID,318,VALID,0,
2013-04-01, 00:50:05,VALID,917.153,VALID,0,VALID,96.3371,VALID,0,VALID,21.8876,VALID,318,VALID,0,
2013-04-01, 00:51:05,VALID,917.165,VALID,0,VALID,96.3066,VALID,0,VALID,21.9071,VALID,318,VALID,0,
2013-04-01, 00:52:05,VALID,917.194,VALID,0,VALID,96.3447,VALID,0,VALID,21.9266,VALID,318,VALID,0,
2013-04-01, 00:53:05,VALID,917.189,VALID,0,VALID,96.3752,VALID,0,VALID,21.9266,VALID,318,VALID,0,
2013-04-01, 00:54:05,VALID,917.193,VALID,0,VALID,96.3447,VALID,0,VALID,21.8876,VALID,318,VALID,0,
2013-04-01, 00:55:05,VALID,917.19,VALID,0,VALID,96.3676,VALID,0,VALID,21.8485,VALID,80,VALID,0,
2013-04-01, 00:56:05,VALID,917.183,VALID,0,VALID,96.36,VALID,0,VALID,21.829,VALID,80,VALID,0,
2013-04-01, 00:57:05,VALID,917.188,VALID,0,VALID,96.3676,VALID,0,VALID,21.829,VALID,80,VALID,0,
2013-04-01, 00:58:05,VALID,917.171,VALID,0,VALID,96.3905,VALID,0,VALID,21.829,VALID,80,VALID,0,
2013-04-01, 00:59:05,VALID,917.18,VALID,0,VALID,96.3981,VALID,0,VALID,21.8095,VALID,80,VALID,0,
2013-04-01, 01:00:05,VALID,917.15,VALID,0,VALID,96.421,VALID,0,VALID,21.829,VALID,80,VALID,0,
2013-04-01, 01:01:05,VALID,917.155,VALID,0,VALID,96.4133,VALID,0,VALID,21.7883,VALID,107,VALID,0,
2013-04-01, 01:02:05,VALID,917.134,VALID,0,VALID,96.4362,VALID,0,VALID,21.8095,VALID,112,VALID,0,
2013-04-01, 01:03:05,VALID,917.116,VALID,0,VALID,96.4438,VALID,0,VALID,21.8095,VALID,111,VALID,0,
2013-04-01, 01:04:05,VALID,917.119,VALID,0,VALID,96.4819,VALID,0,VALID,21.8095,VALID,114,VALID,0,
2013-04-01, 01:05:05,VALID,917.119,VALID,0,VALID,96.4667,VALID,0,VALID,21.8095,VALID,114,VALID,0,
2013-04-01, 01:06:05,VALID,917.097,VALID,0,VALID,96.4743,VALID,0,VALID,21.8095,VALID,93,VALID,0,
2013-04-01, 01:07:05,VALID,917.097,VALID,0,VALID,96.4972,VALID,0,VALID,21.829,VALID,93,VALID,0,
2013-04-01, 01:08:05,VALID,917.084,VALID,0,VALID,96.5201,VALID,0,VALID,21.829,VALID,93,VALID,0,
2013-04-01, 01:09:05,VALID,917.061,VALID,0,VALID,96.5124,VALID,0,VALID,21.8502,VALID,93,VALID,0,
2013-04-01, 01:10:05,VALID,917.042,VALID,0,VALID,96.5124,VALID,0,VALID,21.8095,VALID,93,VALID,0,
2013-04-01, 01:11:05,VALID,917.009,VALID,0,VALID,96.5353,VALID,0,VALID,21.79,VALID,93,VALID,0,
2013-04-01, 01:12:05,VALID,916.977,VALID,0,VALID,96.5201,VALID,0,VALID,21.8095,VALID,98,VALID,0,
2013-04-01, 01:13:05,VALID,916.974,VALID,0,VALID,96.5353,VALID,0,VALID,21.7705,VALID,104,VALID,0,
2013-04-01, 01:14:04,VALID,916.94,VALID,0,VALID,96.5506,VALID,0,VALID,21.79,VALID,105,VALID,0,
2013-04-01, 01:15:04,VALID,916.902,VALID,0,VALID,96.5506,VALID,0,VALID,21.7705,VALID,104,VALID,0,
2013-04-01, 01:16:04,VALID,916.845,VALID,0,VALID,96.5506,VALID,0,VALID,21.7705,VALID,105,VALID,0,
2013-04-01, 01:17:04,VALID,916.83,VALID,0,VALID,96.5582,VALID,0,VALID,21.7705,VALID,102,VALID,0,
2013-04-01, 01:18:04,VALID,916.802,VALID,0,VALID,96.5734,VALID,0,VALID,21.751,VALID,106,VALID,0,
2013-04-01, 01:19:04,VALID,916.77,VALID,0,VALID,96.6039,VALID,0,VALID,21.7705,VALID,102,VALID,0,
2013-04-01, 01:20:04,VALID,916.749,VALID,0,VALID,96.6115,VALID,0,VALID,21.751,VALID,104,VALID,0,
2013-04-01, 01:21:04,VALID,916.76,VALID,0,VALID,96.6268,VALID,0,VALID,21.751,VALID,102,VALID,0,
2013-04-01, 01:22:04,VALID,916.773,VALID,0,VALID,96.6268,VALID,0,VALID,21.7298,VALID,110,VALID,0,
2013-04-01, 01:23:04,VALID,916.79,VALID,0,VALID,96.6344,VALID,0,VALID,21.751,VALID,110,VALID,0,
2013-04-01, 01:24:04,VALID,916.784,VALID,0,VALID,96.6344,VALID,0,VALID,21.751,VALID,122,VALID,0,
2013-04-01, 01:25:04,VALID,916.794,VALID,0,VALID,96.6497,VALID,0,VALID,21.7493,VALID,117,VALID,0,
2013-04-01, 01:26:04,VALID,916.804,VALID,0,VALID,96.6649,VALID,0,VALID,21.7298,VALID,106,VALID,0,
2013-04-01, 01:27:04,VALID,916.754,VALID,0,VALID,96.6573,VALID,0,VALID,21.7705,VALID,139,VALID,0,
2013-04-01, 01:28:04,VALID,916.753,VALID,0,VALID,96.6649,VALID,0,VALID,21.79,VALID,132,VALID,0,
2013-04-01, 01:29:04,VALID,916.727,VALID,0,VALID,96.6802,VALID,0,VALID,21.751,VALID,126,VALID,0,
2013-04-01, 01:30:04,VALID,916.703,VALID,0,VALID,96.6725,VALID,0,VALID,21.751,VALID,124,VALID,0,
2013-04-01, 01:31:04,VALID,916.666,VALID,0,VALID,96.6878,VALID,0,VALID,21.7705,VALID,124,VALID,0,
2013-04-01, 01:32:04,VALID,916.67,VALID,0,VALID,96.7107,VALID,0,VALID,21.7705,VALID,122,VALID,0,
2013-04-01, 01:33:04,VALID,916.66,VALID,0,VALID,96.7183,VALID,0,VALID,21.7705,VALID,122,VALID,0,
2013-04-01, 01:34:04,VALID,916.682,VALID,0,VALID,96.703,VALID,0,VALID,21.751,VALID,103,VALID,0,
2013-04-01, 01:35:04,VALID,916.695,VALID,0,VALID,96.703,VALID,0,VALID,21.7493,VALID,102,VALID,0,
2013-04-01, 01:36:04,VALID,916.719,VALID,0,VALID,96.7259,VALID,0,VALID,21.751,VALID,102,VALID,0,
2013-04-01, 01:37:04,VALID,916.72,VALID,0,VALID,96.7335,VALID,0,VALID,21.7705,VALID,81,VALID,0,
2013-04-01, 01:38:04,VALID,916.74,VALID,0,VALID,96.7259,VALID,0,VALID,21.751,VALID,81,VALID,0,
2013-04-01, 01:39:04,VALID,916.719,VALID,0,VALID,96.7335,VALID,0,VALID,21.7705,VALID,96,VALID,0,
2013-04-01, 01:40:04,VALID,916.72,VALID,0,VALID,96.7411,VALID,0,VALID,21.751,VALID,87,VALID,0,
2013-04-01, 01:41:04,VALID,916.715,VALID,0,VALID,96.7488,VALID,0,VALID,21.751,VALID,102,VALID,0,
2013-04-01, 01:42:04,VALID,916.72,VALID,0,VALID,96.7564,VALID,0,VALID,21.7315,VALID,126,VALID,0,
2013-04-01, 01:43:04,VALID,916.701,VALID,0,VALID,96.7716,VALID,0,VALID,21.751,VALID,128,VALID,0,
2013-04-01, 01:44:04,VALID,916.702,VALID,0,VALID,96.764,VALID,0,VALID,21.712,VALID,102,VALID,0,
2013-04-01, 01:45:04,VALID,916.693,VALID,0,VALID,96.7793,VALID,0,VALID,21.7315,VALID,102,VALID,0,
2013-04-01, 01:46:04,VALID,916.688,VALID,0,VALID,96.7564,VALID,0,VALID,21.7315,VALID,102,VALID,0,
2013-04-01, 01:47:04,VALID,916.701,VALID,0,VALID,96.764,VALID,0,VALID,21.712,VALID,102,VALID,0,
2013-04-01, 01:48:04,VALID,916.734,VALID,0,VALID,96.7716,VALID,0,VALID,21.7315,VALID,102,VALID,0,
2013-04-01, 01:49:04,VALID,916.713,VALID,0,VALID,96.7869,VALID,0,VALID,21.7315,VALID,102,VALID,0,
2013-04-01, 01:50:04,VALID,916.738,VALID,0,VALID,96.8021,VALID,0,VALID,21.712,VALID,102,VALID,0,
2013-04-01, 01:51:04,VALID,916.706,VALID,0,VALID,96.7716,VALID,0,VALID,21.6729,VALID,102,VALID,0,
2013-04-01, 01:52:04,VALID,916.723,VALID,0,VALID,96.7945,VALID,0,VALID,21.6534,VALID,102,VALID,0,
2013-04-01, 01:53:04,VALID,916.692,VALID,0,VALID,96.7716,VALID,0,VALID,21.6924,VALID,102,VALID,0,
2013-04-01, 01:54:04,VALID,916.669,VALID,0,VALID,96.7869,VALID,0,VALID,21.6924,VALID,102,VALID,0,
2013-04-01, 01:55:04,VALID,916.623,VALID,0,VALID,96.7716,VALID,0,VALID,21.6729,VALID,102,VALID,0,
2013-04-01, 01:56:04,VALID,916.615,VALID,0,VALID,96.7945,VALID,0,VALID,21.6534,VALID,102,VALID,0,
2013-04-01, 01:57:04,VALID,916.604,VALID,0,VALID,96.8098,VALID,0,VALID,21.6924,VALID,102,VALID,0,
2013-04-01, 01:58:04,VALID,916.553,VALID,0,VALID,96.8098,VALID,0,VALID,21.6924,VALID,102,VALID,0,
2013-04-01, 01:59:04,VALID,916.504,VALID,0,VALID,96.8021,VALID,0,VALID,21.6713,VALID,102,VALID,0,
2013-04-01, 02:00:04,VALID,916.514,VALID,0,VALID,96.825,VALID,0,VALID,21.6729,VALID,102,VALID,0,
2013-04-01, 02:01:04,VALID,916.526,VALID,0,VALID,96.8098,VALID,0,VALID,21.6924,VALID,165,VALID,0,
2013-04-01, 02:02:04,VALID,916.535,VALID,0,VALID,96.825,VALID,0,VALID,21.6924,VALID,165,VALID,0,
2013-04-01, 02:03:04,VALID,916.491,VALID,0,VALID,96.8326,VALID,0,VALID,21.7526,VALID,165,VALID,0,
2013-04-01, 02:04:04,VALID,916.493,VALID,0,VALID,96.825,VALID,0,VALID,21.712,VALID,165,VALID,0,
2013-04-01, 02:05:04,VALID,916.508,VALID,0,VALID,96.8403,VALID,0,VALID,21.7315,VALID,165,VALID,0,
2013-04-01, 02:06:04,VALID,916.476,VALID,0,VALID,96.8174,VALID,0,VALID,21.751,VALID,165,VALID,0,
2013-04-01, 02:07:04,VALID,916.474,VALID,0,VALID,96.8326,VALID,0,VALID,21.79,VALID,165,VALID,0,
2013-04-01, 02:08:04,VALID,916.48,VALID,0,VALID,96.8555,VALID,0,VALID,21.8095,VALID,165,VALID,0,
2013-04-01, 02:09:04,VALID,916.482,VALID,0,VALID,96.825,VALID,0,VALID,21.7917,VALID,164,VALID,0,
2013-04-01, 02:10:04,VALID,916.486,VALID,0,VALID,96.8326,VALID,0,VALID,21.8095,VALID,164,VALID,0,
2013-04-01, 02:11:04,VALID,916.509,VALID,0,VALID,96.8403,VALID,0,VALID,21.8095,VALID,164,VALID,0,
2013-04-01, 02:12:04,VALID,916.52,VALID,0,VALID,96.8326,VALID,0,VALID,21.8095,VALID,164,VALID,0,
2013-04-01, 02:13:04,VALID,916.527,VALID,0,VALID,96.8479,VALID,0,VALID,21.79,VALID,164,VALID,0,
2013-04-01, 02:14:04,VALID,916.543,VALID,0,VALID,96.8403,VALID,0,VALID,21.8095,VALID,164,VALID,0,
2013-04-01, 02:15:04,VALID,916.546,VALID,0,VALID,96.8555,VALID,0,VALID,21.7705,VALID,164,VALID,0,
2013-04-01, 02:16:04,VALID,916.522,VALID,0,VALID,96.8479,VALID,0,VALID,21.79,VALID,164,VALID,0,
2013-04-01, 02:17:04,VALID,916.547,VALID,0,VALID,96.8403,VALID,0,VALID,21.7705,VALID,164,VALID,0,
2013-04-01, 02:18:04,VALID,916.545,VALID,0,VALID,96.8479,VALID,0,VALID,21.7705,VALID,164,VALID,0,
2013-04-01, 02:19:04,VALID,916.505,VALID,0,VALID,96.8403,VALID,0,VALID,21.7705,VALID,164,VALID,0,
2013-04-01, 02:20:04,VALID,916.487,VALID,0,VALID,96.8479,VALID,0,VALID,21.79,VALID,164,VALID,0,
2013-04-01, 02:21:04,VALID,916.491,VALID,0,VALID,96.8707,VALID,0,VALID,21.7705,VALID,164,VALID,0,
2013-04-01, 02:22:04,VALID,916.48,VALID,0,VALID,96.8784,VALID,0,VALID,21.751,VALID,164,VALID,0,
2013-04-01, 02:23:04,VALID,916.459,VALID,0,VALID,96.8631,VALID,0,VALID,21.751,VALID,164,VALID,0,
2013-04-01, 02:24:04,VALID,916.432,VALID,0,VALID,96.8707,VALID,0,VALID,21.751,VALID,164,VALID,0,
2013-04-01, 02:25:04,VALID,916.404,VALID,0,VALID,96.8555,VALID,0,VALID,21.7315,VALID,175,VALID,0,
2013-04-01, 02:26:04,VALID,916.366,VALID,0,VALID,96.8784,VALID,0,VALID,21.7526,VALID,175,VALID,0,
2013-04-01, 02:27:04,VALID,916.337,VALID,0,VALID,96.8936,VALID,0,VALID,21.712,VALID,190,VALID,0,
2013-04-01, 02:28:04,VALID,916.322,VALID,0,VALID,96.8631,VALID,0,VALID,21.6924,VALID,181,VALID,0,
2013-04-01, 02:29:04,VALID,916.271,VALID,0,VALID,96.8707,VALID,0,VALID,21.6924,VALID,183,VALID,0,
2013-04-01, 02:30:04,VALID,916.314,VALID,0,VALID,96.8784,VALID,0,VALID,21.6729,VALID,177,VALID,0,
2013-04-01, 02:31:04,VALID,916.288,VALID,0,VALID,96.8936,VALID,0,VALID,21.6924,VALID,159,VALID,0,
2013-04-01, 02:32:04,VALID,916.311,VALID,0,VALID,96.8707,VALID,0,VALID,21.6729,VALID,162,VALID,0,
2013-04-01, 02:33:04,VALID,916.347,VALID,0,VALID,96.9012,VALID,0,VALID,21.6339,VALID,162,VALID,0,
2013-04-01, 02:34:04,VALID,916.321,VALID,0,VALID,96.886,VALID,0,VALID,21.6144,VALID,153,VALID,0,
2013-04-01, 02:35:04,VALID,916.334,VALID,0,VALID,96.886,VALID,0,VALID,21.6144,VALID,143,VALID,0,
2013-04-01, 02:36:04,VALID,916.309,VALID,0,VALID,96.8936,VALID,0,VALID,21.6144,VALID,46,VALID,0,
2013-04-01, 02:37:04,VALID,916.288,VALID,0,VALID,96.9012,VALID,0,VALID,21.6128,VALID,46,VALID,0,
2013-04-01, 02:38:04,VALID,916.276,VALID,0,VALID,96.9165,VALID,0,VALID,21.6534,VALID,46,VALID,0,
2013-04-01, 02:39:04,VALID,916.254,VALID,0,VALID,96.9012,VALID,0,VALID,21.6339,VALID,46,VALID,0,
2013-04-01, 02:40:04,VALID,916.225,VALID,0,VALID,96.9165,VALID,0,VALID,21.6534,VALID,46,VALID,0,
2013-04-01, 02:41:04,VALID,916.232,VALID,0,VALID,96.8936,VALID,0,VALID,21.6339,VALID,46,VALID,0,
2013-04-01, 02:42:04,VALID,916.278,VALID,0,VALID,96.8936,VALID,0,VALID,21.6356,VALID,46,VALID,0,
2013-04-01, 02:43:04,VALID,916.296,VALID,0,VALID,96.9089,VALID,0,VALID,21.6144,VALID,46,VALID,0,
2013-04-01, 02:44:04,VALID,916.302,VALID,0,VALID,96.9089,VALID,0,VALID,21.6339,VALID,46,VALID,0,
2013-04-01, 02:45:04,VALID,916.325,VALID,0,VALID,96.886,VALID,0,VALID,21.6339,VALID,46,VALID,0,
2013-04-01, 02:46:04,VALID,916.315,VALID,0,VALID,96.8936,VALID,0,VALID,21.6339,VALID,46,VALID,0,
2013-04-01, 02:47:04,VALID,916.306,VALID,0,VALID,96.8936,VALID,0,VALID,21.6144,VALID,46,VALID,0,
2013-04-01, 02:48:04,VALID,916.285,VALID,0,VALID,96.9241,VALID,0,VALID,21.6534,VALID,46,VALID,0,
2013-04-01, 02:49:04,VALID,916.239,VALID,0,VALID,96.8936,VALID,0,VALID,21.6339,VALID,46,VALID,0,
2013-04-01, 02:50:04,VALID,916.188,VALID,0,VALID,96.9012,VALID,0,VALID,21.5949,VALID,46,VALID,0,
2013-04-01, 02:51:04,VALID,916.158,VALID,0,VALID,96.9012,VALID,0,VALID,21.5949,VALID,46,VALID,0,
2013-04-01, 02:52:04,VALID,916.162,VALID,0,VALID,96.9165,VALID,0,VALID,21.5754,VALID,46,VALID,0,
2013-04-01, 02:53:04,VALID,916.172,VALID,0,VALID,96.9089,VALID,0,VALID,21.5363,VALID,46,VALID,0,
2013-04-01, 02:54:04,VALID,916.153,VALID,0,VALID,96.9089,VALID,0,VALID,21.5168,VALID,46,VALID,0,
2013-04-01, 02:55:04,VALID,916.169,VALID,0,VALID,96.9165,VALID,0,VALID,21.5168,VALID,46,VALID,0,
2013-04-01, 02:56:04,VALID,916.169,VALID,0,VALID,96.9012,VALID,0,VALID,21.4778,VALID,46,VALID,0,
2013-04-01, 02:57:04,VALID,916.165,VALID,0,VALID,96.9165,VALID,0,VALID,21.4973,VALID,46,VALID,0,
2013-04-01, 02:58:04,VALID,916.117,VALID,0,VALID,96.9089,VALID,0,VALID,21.4583,VALID,46,VALID,0,
2013-04-01, 02:59:04,VALID,916.133,VALID,0,VALID,96.9165,VALID,0,VALID,21.4778,VALID,46,VALID,0,
2013-04-01, 03:00:04,VALID,916.103,VALID,0,VALID,96.9165,VALID,0,VALID,21.4762,VALID,46,VALID,0,
2013-04-01, 03:01:04,VALID,916.093,VALID,0,VALID,96.9241,VALID,0,VALID,21.4794,VALID,46,VALID,0,
2013-04-01, 03:02:04,VALID,916.094,VALID,0,VALID,96.9317,VALID,0,VALID,21.4583,VALID,46,VALID,0,
2013-04-01, 03:03:04,VALID,916.09,VALID,0,VALID,96.947,VALID,0,VALID,21.4388,VALID,46,VALID,0,
2013-04-01, 03:04:04,VALID,916.073,VALID,0,VALID,96.9241,VALID,0,VALID,21.4388,VALID,46,VALID,0,
2013-04-01, 03:05:04,VALID,916.089,VALID,0,VALID,96.9165,VALID,0,VALID,21.4209,VALID,46,VALID,0,
2013-04-01, 03:06:04,VALID,916.085,VALID,0,VALID,96.9317,VALID,0,VALID,21.4193,VALID,46,VALID,0,
2013-04-01, 03:07:04,VALID,916.048,VALID,0,VALID,96.947,VALID,0,VALID,21.4599,VALID,46,VALID,0,
2013-04-01, 03:08:04,VALID,916.029,VALID,0,VALID,96.9317,VALID,0,VALID,21.4388,VALID,46,VALID,0,
2013-04-01, 03:09:04,VALID,916.013,VALID,0,VALID,96.947,VALID,0,VALID,21.4599,VALID,46,VALID,0,
2013-04-01, 03:10:04,VALID,916.005,VALID,0,VALID,96.947,VALID,0,VALID,21.4193,VALID,46,VALID,0,
2013-04-01, 03:11:04,VALID,915.96,VALID,0,VALID,96.947,VALID,0,VALID,21.4193,VALID,46,VALID,0,
2013-04-01, 03:12:04,VALID,915.915,VALID,0,VALID,96.947,VALID,0,VALID,21.3998,VALID,46,VALID,0,
2013-04-01, 03:13:04,VALID,915.897,VALID,0,VALID,96.947,VALID,0,VALID,21.3998,VALID,46,VALID,0,
2013-04-01, 03:14:04,VALID,915.886,VALID,0,VALID,96.9546,VALID,0,VALID,21.3624,VALID,46,VALID,0,
2013-04-01, 03:15:04,VALID,915.886,VALID,0,VALID,96.9622,VALID,0,VALID,21.3234,VALID,46,VALID,0,
2013-04-01, 03:16:04,VALID,915.859,VALID,0,VALID,96.9622,VALID,0,VALID,21.3006,VALID,46,VALID,0,
2013-04-01, 03:17:04,VALID,915.831,VALID,0,VALID,96.9698,VALID,0.107441,VALID,21.2811,VALID,51,VALID,0,
2013-04-01, 03:18:04,VALID,915.824,VALID,0,VALID,96.9775,VALID,0.107441,VALID,21.2421,VALID,51,VALID,0,
2013-04-01, 03:19:04,VALID,915.775,VALID,0,VALID,96.9622,VALID,0.107441,VALID,21.2421,VALID,51,VALID,0,
2013-04-01, 03:20:04,VALID,915.754,VALID,0,VALID,96.9775,VALID,0.107441,VALID,21.2242,VALID,51,VALID,0,
2013-04-01, 03:21:04,VALID,915.708,VALID,0,VALID,96.9927,VALID,0.107441,VALID,21.2226,VALID,51,VALID,0,
2013-04-01, 03:22:04,VALID,915.71,VALID,0,VALID,96.9775,VALID,0,VALID,21.2031,VALID,51,VALID,0,
2013-04-01, 03:23:04,VALID,915.672,VALID,0,VALID,96.9927,VALID,0.107441,VALID,21.2226,VALID,53,VALID,0,
2013-04-01, 03:24:04,VALID,915.685,VALID,0,VALID,96.9851,VALID,0,VALID,21.2047,VALID,166,VALID,0,
2013-04-01, 03:25:04,VALID,915.713,VALID,0,VALID,96.9927,VALID,0,VALID,21.1836,VALID,166,VALID,0,
2013-04-01, 03:26:04,VALID,915.702,VALID,0,VALID,96.9927,VALID,0,VALID,21.2242,VALID,166,VALID,0,
2013-04-01, 03:27:04,VALID,915.737,VALID,0,VALID,97.0003,VALID,0.107441,VALID,21.2242,VALID,165,VALID,0,
2013-04-01, 03:28:04,VALID,915.722,VALID,0,VALID,96.9775,VALID,0,VALID,21.2242,VALID,165,VALID,0,
2013-04-01, 03:29:04,VALID,915.728,VALID,0,VALID,97.0003,VALID,0,VALID,21.2047,VALID,161,VALID,0,
2013-04-01, 03:30:04,VALID,915.756,VALID,0,VALID,96.9927,VALID,0.107441,VALID,21.164,VALID,161,VALID,0,
2013-04-01, 03:31:04,VALID,915.769,VALID,0,VALID,96.9927,VALID,0,VALID,21.1657,VALID,161,VALID,0,
2013-04-01, 03:32:04,VALID,915.752,VALID,0,VALID,96.9927,VALID,0,VALID,21.1673,VALID,161,VALID,0,
2013-04-01, 03:33:04,VALID,915.769,VALID,0,VALID,97.0003,VALID,0,VALID,21.1868,VALID,161,VALID,0,
2013-04-01, 03:34:04,VALID,915.761,VALID,0,VALID,97.0232,VALID,0,VALID,21.1852,VALID,161,VALID,0,
2013-04-01, 03:35:04,VALID,915.793,VALID,0,VALID,97.0308,VALID,0,VALID,21.2063,VALID,161,VALID,0,
2013-04-01, 03:36:04,VALID,915.79,VALID,0,VALID,97.0232,VALID,0,VALID,21.2063,VALID,161,VALID,0,
2013-04-01, 03:37:04,VALID,915.808,VALID,0,VALID,97.0232,VALID,0,VALID,21.2063,VALID,162,VALID,0,
2013-04-01, 03:38:04,VALID,915.849,VALID,0,VALID,97.0385,VALID,0,VALID,21.2258,VALID,166,VALID,0,
2013-04-01, 03:39:04,VALID,915.837,VALID,0,VALID,97.0308,VALID,0,VALID,21.2047,VALID,167,VALID,0,
2013-04-01, 03:40:04,VALID,915.887,VALID,0,VALID,97.0461,VALID,0,VALID,21.2437,VALID,167,VALID,0,
2013-04-01, 03:41:04,VALID,915.857,VALID,0,VALID,97.0385,VALID,0,VALID,21.2632,VALID,167,VALID,0,
2013-04-01, 03:42:04,VALID,915.879,VALID,0,VALID,97.0461,VALID,0,VALID,21.2648,VALID,167,VALID,0,
2013-04-01, 03:43:04,VALID,915.888,VALID,0,VALID,97.0537,VALID,0,VALID,21.2632,VALID,167,VALID,0,
2013-04-01, 03:44:04,VALID,915.862,VALID,0,VALID,97.0385,VALID,0,VALID,21.2437,VALID,64,VALID,0,
2013-04-01, 03:45:04,VALID,915.895,VALID,0,VALID,97.0537,VALID,0,VALID,21.2648,VALID,64,VALID,0,
2013-04-01, 03:46:04,VALID,915.877,VALID,0,VALID,97.0308,VALID,0,VALID,21.2632,VALID,64,VALID,0,
2013-04-01, 03:47:04,VALID,915.89,VALID,0,VALID,97.0461,VALID,0,VALID,21.2437,VALID,64,VALID,0,
2013-04-01, 03:48:04,VALID,915.877,VALID,0,VALID,97.0385,VALID,0,VALID,21.2632,VALID,63,VALID,0,
2013-04-01, 03:49:04,VALID,915.874,VALID,0,VALID,97.0385,VALID,0,VALID,21.2632,VALID,64,VALID,0,
2013-04-01, 03:50:04,VALID,915.877,VALID,0,VALID,97.0613,VALID,0,VALID,21.2843,VALID,64,VALID,0,
2013-04-01, 03:51:04,VALID,915.874,VALID,0,VALID,97.0537,VALID,0,VALID,21.2047,VALID,64,VALID,0,
2013-04-01, 03:52:04,VALID,915.924,VALID,0,VALID,97.0537,VALID,0,VALID,21.2047,VALID,64,VALID,0,
2013-04-01, 03:53:04,VALID,915.92,VALID,0,VALID,97.0461,VALID,0,VALID,21.1852,VALID,64,VALID,0,
2013-04-01, 03:54:04,VALID,915.927,VALID,0,VALID,97.0766,VALID,0,VALID,21.1657,VALID,64,VALID,0,
2013-04-01, 03:55:04,VALID,915.896,VALID,0,VALID,97.0537,VALID,0,VALID,21.1461,VALID,64,VALID,0,
2013-04-01, 03:56:04,VALID,915.869,VALID,0,VALID,97.0766,VALID,0,VALID,21.1673,VALID,64,VALID,0,
2013-04-01, 03:57:04,VALID,915.853,VALID,0,VALID,97.0537,VALID,0,VALID,21.1461,VALID,63,VALID,0,
2013-04-01, 03:58:04,VALID,915.832,VALID,0,VALID,97.0766,VALID,0,VALID,21.1657,VALID,63,VALID,0,
2013-04-01, 03:59:04,VALID,915.851,VALID,0,VALID,97.0613,VALID,0,VALID,21.1852,VALID,63,VALID,0,
2013-04-01, 04:00:04,VALID,915.856,VALID,0,VALID,97.069,VALID,0,VALID,21.1852,VALID,63,VALID,0,